Location: NJAA Observatory
(40.6819°N, 74.8979°W)
Time: 16:36:36
(UTC-04:00)

Daily predictions for brighter satellites

Satellite Brightness Start Highest point End
(mag) Time Altitude Azimuth Time Altitude Azimuth Time Altitude Azimuth
Cosmos 1777 Rocket 4.0 20:57:17 10° S 21:02:31 73° ESE 21:07:46 10° NNE
In-Cosmos 22 4.4 20:57:16 10° S 21:03:03 89° E 21:08:49 10° N
Cosmos 1980 Rocket 4.5 20:59:00 10° NW 21:03:19 23° W 21:07:39 10° SSW
Cosmos 2360 Rocket 2.6 20:58:49 10° NNW 21:04:21 52° ENE 21:09:51 10° SE
Cosmos 2151 3.9 21:00:48 10° SSE 21:04:27 30° E 21:08:07 10° NNE
FENGYUN 3A 4.4 21:00:29 10° S 21:05:48 56° W 21:11:08 10° NNW
Cosmos 1515 Rocket 3.6 21:01:33 10° N 21:06:01 77° E 21:10:24 10° SSE
SL-16 R/B 2.8 21:01:20 10° NNW 21:06:55 59° WSW 21:12:28 10° S
DELTA 2 R/B (1) 3.7 21:05:55 10° W 21:11:25 64° SSW 21:16:54 10° ESE
USA 186 3.8 21:15:06 10° SW 21:16:40 17° W 21:18:17 10° NW
Cosmos 1908 3.2 21:15:19 10° N 21:19:13 69° E 21:23:07 10° SSE
Cosmos 2058 4.0 21:16:29 10° SSE 21:19:54 26° E 21:23:20 10° NNE
CZ-4 SHROUD 4.2 21:18:47 10° SE 21:21:38 32° ENE 21:24:29 10° N
Cosmos 1151 Rocket 3.0 21:18:51 10° N 21:23:09 67° E 21:27:27 10° SSE
Cosmos 2266 Rocket 4.0 21:18:53 10° S 21:25:09 74° E 21:31:21 10° N
Cosmos 1674 2.6 21:23:23 10° S 21:27:12 83° E 21:31:05 10° N
Cosmos 405 3.0 21:24:04 10° N 21:27:43 81° E 21:31:19 10° S
ALOS 4.2 21:25:08 10° SSW 21:29:06 27° W 21:33:06 10° NW
Cosmos 2315 Rocket 4.3 21:25:05 10° N 21:31:08 52° ENE 21:37:05 10° SSE
H-2A R/B 4.0 21:28:09 10° E 21:31:26 17° ENE 21:34:45 10° NNE
Cosmos 2227 Rocket 3.9 21:29:46 11° ESE 21:31:52 13° E 21:34:20 10° ENE
CZ-4B R/B 4.2 21:27:14 10° NNE 21:32:01 35° E 21:36:43 10° SSE
Cosmos 1805 Rocket 4.2 21:29:40 10° SSE 21:33:47 38° E 21:37:54 10° NNE
Cosmos 1680 Rocket 3.5 21:28:53 10° NNW 21:34:09 76° ENE 21:39:11 11° SSE
H-2A R/B 4.4 21:33:40 10° S 21:37:14 21° SE 21:46:51 10° E
Cosmos 923 Rocket 4.2 21:33:30 10° NNW 21:38:43 75° WSW 21:43:53 10° S
Cosmos 1300 3.5 21:36:43 10° N 21:40:16 34° ENE 21:42:49 16° SE
YAOGAN 6 3.2 21:38:15 15° SE 21:40:58 40° ENE 21:44:23 10° N
USA 229 DEB 4.4 21:34:29 10° SW 21:41:18 60° NW 21:48:15 10° NNE
USA 229 4.4 21:34:34 10° SW 21:41:24 60° NW 21:48:21 10° NNE
Tiangong 1 1.5 21:39:02 10° SW 21:41:56 37° SSE 21:44:50 10° E
SPOT 1/Viking Rocket 4.1 21:39:09 14° SE 21:43:22 45° ENE 21:48:15 10° N
Cosmos 2333 Rocket 3.8 21:40:26 10° N 21:44:57 23° NE 21:49:17 11° ESE
Cosmos 1898 Rocket 4.0 21:42:10 10° SSE 21:46:53 37° ESE 21:51:39 10° NE
Cosmos 1939 Rocket 3.7 21:46:26 10° S 21:50:13 46° W 21:54:00 10° NNW
H-2A R/B 3.0 21:46:13 10° S 21:50:36 48° W 21:55:00 10° NNW
Cosmos 1707 Rocket 3.8 21:48:29 10° N 21:52:45 52° E 21:55:46 18° SSE
Cosmos 1437 Rocket 4.4 21:49:36 10° NNW 21:53:01 32° W 21:56:28 10° SSW
Cosmos 2150 Rocket 4.4 21:48:56 10° S 21:54:04 46° ESE 21:59:18 10° NNE
Cosmos 1666 Rocket 3.8 21:52:49 15° SSE 21:56:17 49° E 22:00:34 10° NNE
MetOp-A 4.1 21:51:56 13° SSE 21:56:47 87° ENE 22:02:10 10° NNW
COSMOS 2428 2.8 21:51:27 10° NNW 21:57:08 67° ENE 22:01:17 19° SE
SPOT 5 3.0 21:53:21 11° S 21:57:39 72° WSW 22:02:29 10° NNW
Cosmos 2297 Rocket 3.8 21:57:44 15° ESE 21:58:48 15° E 22:02:01 10° ENE
NOSS 3-1 (A) 3.4 21:55:03 10° SSW 22:00:43 57° ESE 22:07:00 10° NE
BREEZE-M DEB (TANK) 4.3 22:00:43 10° NNW 22:02:06 15° NNE 22:03:41 10° ENE
Cosmos 1455 4.2 22:00:24 10° NE 22:02:41 15° ENE 22:03:46 14° E
PSLV R/B 3.8 22:00:36 16° S 22:02:53 52° W 22:05:53 10° NNW
ARGOS 3.4 21:59:31 18° SE 22:03:26 58° ENE 22:08:43 10° N
Cosmos 2219 Rocket 2.9 22:00:06 10° N 22:05:21 39° ENE 22:08:52 19° ESE
NOSS 0 Rocket 4.5 22:11:39 10° NNW 22:17:35 47° ENE 22:21:19 22° ESE
Cosmos 2237 4.3 22:12:58 10° NNW 22:18:43 78° WSW 22:22:30 22° SSE
Cosmos 1726 2.1 22:17:47 10° N 22:21:36 90° SSE 22:23:25 29° S
ATLAS 2AS CENTAUR R/B 3.5 22:18:20 18° SSE 22:23:12 37° ESE 22:30:18 10° NE
Cosmos 1980 4.4 22:18:59 10° N 22:24:18 41° ENE 22:27:20 23° ESE
CZ-4C R/B 3.3 22:24:04 36° SE 22:25:05 50° ENE 22:28:28 10° N
USA 32 4.0 22:21:00 10° N 22:26:15 68° E 22:29:09 27° SSE
Cosmos 292 Rocket 3.8 22:23:50 10° NNW 22:28:36 68° ENE 22:30:47 31° SE
Landsat 7 4.0 22:27:03 29° SE 22:29:22 61° ENE 22:34:03 10° N
Cosmos 2219 4.1 22:23:54 10° SW 22:29:29 52° WNW 22:35:07 10° NNE
ERBS 3.6 22:32:03 26° E 22:32:03 26° E 22:34:02 10° ENE
Delta 2 Rocket 3.7 22:28:58 10° WSW 22:31:53 33° SSW 22:31:53 33° SSW
Cosmos 2237 Rocket 2.7 22:31:26 10° NNW 22:36:57 47° ENE 22:39:42 27° ESE
Cosmos 2333 4.3 22:31:21 10° NNW 22:37:05 74° WSW 22:40:15 28° S
Cosmos 1271 Rocket 2.6 22:34:57 10° N 22:38:48 89° WSW 22:40:05 41° S
ATLAS 3B R/B 3.9 22:32:53 10° NNW 22:39:14 34° NE 22:44:01 15° E
Meteor 2-10 4.2 22:34:25 10° N 22:40:10 76° E 22:43:05 30° SSE
Cosmos 2082 3.9 22:38:00 27° SSE 22:40:52 51° ESE 22:46:23 10° NNE
Cosmos 1703 3.2 22:41:15 34° S 22:42:52 86° W 22:46:48 10° N
SL-14 R/B 4.3 22:40:06 15° SSW 22:43:10 44° WNW 22:47:02 10° N
Meteor 1-4 Rocket 2.8 22:40:36 10° NNW 22:44:20 67° W 22:45:29 40° SSW
Cosmos 2242 Rocket 3.7 22:40:13 10° NNW 22:44:41 71° W 22:46:44 31° S
Cosmos 1346 3.5 22:45:04 47° ENE 22:45:04 47° ENE 22:47:39 10° NNE
Terra 1.9 22:43:25 36° SE 22:45:13 61° ENE 22:49:55 10° N
Cosmos 1937 Rocket 3.5 22:41:24 16° SSW 22:45:40 87° WNW 22:50:54 10° NNE
NOSS 3-1 (C) 4.1 22:41:41 10° SW 22:47:27 55° NW 22:53:54 10° NNE
Cosmos 2360 Rocket 4.1 22:43:43 10° NW 22:47:55 22° W 22:52:07 10° SSW
Iridium 2 3.6 22:47:14 42° S 22:48:27 84° W 22:52:20 10° N
Spot 4 4.2 22:47:25 35° SE 22:49:06 52° ENE 22:53:50 10° N
Cosmos 1862 Rocket 3.6 22:47:14 10° N 22:51:32 60° E 22:52:33 45° SE
Lacrosse 4 Rocket 3.4 22:48:13 10° N 22:51:36 21° NE 22:53:24 17° E
Sich 1 4.1 22:48:46 14° SSW 22:52:16 44° WNW 22:56:29 10° N
CARTOSAT-1 3.5 22:51:08 45° SSE 22:52:24 77° ENE 22:56:44 10° N
FALCON 9 R/B 3.9 22:29:04 10° W 22:55:32 65° S 23:00:30 23° ESE
Cosmos 1633 Rocket 4.1 22:52:39 15° SW 22:55:58 42° WNW 23:00:08 10° N
Cosmos 990 Rocket 3.8 22:53:45 28° SSW 22:56:33 83° ESE 23:01:43 10° NNE
Cosmos 1626 2.0 23:01:03 67° SSE 23:01:28 80° E 23:05:14 10° N
OAO 2 Rocket 3.7 22:58:07 10° WSW 23:03:09 43° S 23:03:20 43° SSE
COSMOS 2455 3.6 23:01:48 10° NNW 23:07:32 44° NE 23:10:13 28° ESE
H-2A R/B 2.3 23:08:02 36° S 23:10:12 69° WSW 23:15:39 10° NNW
Cosmos 2227 Rocket 2.2 23:11:30 23° SSW 23:15:06 81° WNW 23:20:49 10° NNE
Tiangong 1 2.5 23:15:22 10° W 23:17:13 32° W 23:17:13 32° W
Cosmos 1933 3.8 23:14:57 10° N 23:18:54 48° E 23:18:58 48° E
Cosmos 1869 Rocket 4.3 23:19:15 38° E 23:19:15 38° E 23:23:21 10° NNE
Cosmos 2333 Rocket 2.5 23:23:58 10° NNW 23:29:36 57° WSW 23:31:18 41° SSW
IGS 5A 4.1 23:29:10 41° SW 23:29:49 45° W 23:33:50 10° NNW
Cosmos 192 4.3 23:25:01 10° NNW 23:29:56 75° WSW 23:30:50 58° S
Cosmos 389 Rocket 4.1 23:27:16 10° NNE 23:29:47 26° NE 23:29:47 26° NE
SL-16 R/B 2.5 23:24:48 10° NNW 23:30:25 57° ENE 23:32:01 42° ESE
SeaSat 1 3.3 23:29:32 32° E 23:30:58 39° ENE 23:35:33 10° N
ALOS 2 4.3 23:31:51 21° ENE 23:32:25 21° ENE 23:35:43 10° NNE
Cosmos 1125 Rocket 3.4 23:33:30 55° S 23:34:40 78° ESE 23:40:00 10° NNE
Cosmos 1048 Rocket 4.2 23:30:52 10° NNW 23:36:12 62° ENE 23:37:19 50° ESE
CZ-4B R/B 3.9 23:36:58 14° ENE 23:36:58 14° ENE 23:38:28 10° NE
Cosmos 1455 3.4 23:35:04 10° NNW 23:38:31 33° W 23:38:49 32° WSW
Cosmos 2297 Rocket 2.4 23:39:29 32° SW 23:42:10 70° WNW 23:47:50 10° NNE
Okean 1-7 3.3 23:41:24 10° N 23:45:28 54° ENE 23:45:28 54° ENE
NOSS 2-3 (D) 4.1 23:46:30 54° ESE 23:46:30 54° ESE 23:51:39 10° NE
Cosmos 2219 Rocket 3.5 23:44:23 10° NW 23:49:06 28° WSW 23:50:35 25° SW
Cosmos 1703 Rocket 3.5 23:48:10 10° NNW 23:52:32 74° W 23:52:36 74° WSW
